Regional Weather Roundup
Issued by NWS

Home | Current Version | Previous Version | Graphics & Text | Print | Product List | Glossary Off
Versions: 1 2 3 4 5 6 7 8 9 10 11 12 13 14 15 16 17 18 19 20 21 22 23 24 25 26 27 28 29 30 31 32 33 34 35 36 37 38 39 40 41 42 43 44 45 46 47 48 49 50

000
ASUS43 KTOP 170759
RWRKS

WEATHER ROUNDUP FOR KANSAS
NATIONAL WEATHER SERVICE GOODLAND KS
300 AM CDT WED SEP 17 2014

NOTE:  "FAIR" INDICATES FEW OR NO CLOUDS BELOW 12,000 FEET WITH NO
SIGNIFICANT WEATHER AND/OR OBSTRUCTIONS TO VISIBILITY.

KSZ001>006-013>018-027>032-041>047-170900-
NORTHWEST KANSAS

CITY           SKY/WX    TMP DP  RH WIND       PRES   REMARKS
GOODLAND       CLEAR     57  51  80 SW8       30.00S
HAYS           CLEAR     63  57  82 S9        29.91F
HILL CITY      CLEAR     56  55  97 CALM      29.92F
RUSSELL        CLEAR     65  63  93 S14       29.90F
$$

KSZ061>065-074>080-084>089-170900-
SOUTHWEST KANSAS

CITY           SKY/WX    TMP DP  RH WIND       PRES   REMARKS
DODGE CITY     CLEAR     66  60  81 SW12      29.98S
ELKHART          N/A     64  58  81 SW9         N/A
GARDEN CITY    CLEAR     62  59  90 S7        29.97F
GREAT BEND     CLEAR     66  61  82 S10       29.95S
LIBERAL        CLEAR     63  57  82 S9        30.02S
$$

KSZ066>073-081>083-090>101-170900-
SOUTHEAST KANSAS

CITY           SKY/WX    TMP DP  RH WIND       PRES   REMARKS
CHANUTE        MOCLDY    64  63  96 SE7       29.98F
COFFEYVILLE    PTCLDY    66  65  96 CALM      29.98F FOG
HUTCHINSON     CLOUDY    68  64  87 S10       29.96F
NEWTON         CLOUDY    66  61  82 S10       29.98F
PARSONS        CLOUDY    68  67  96 SE3       29.99F
WICHITA INTL   PTCLDY    65  63  93 S6        29.96F
WICHITA JABRA  CLEAR     66  64  93 S10       29.96F
WICHITA MCCONL CLEAR     66  66 100 S9        29.97F
WINFIELD       CLEAR     68  66  93 S9        29.98S
$$

KSZ007>012-019>026-033>040-048>060-102>105-170900-
NORTHEAST KANSAS

CITY           SKY/WX    TMP DP  RH WIND       PRES   REMARKS
CONCORDIA      PTCLDY    58  57  97 CALM      29.93F
EMPORIA        MOCLDY    63  63 100 SE8       29.97F
LAWRENCE       CLOUDY    64  59  83 SE5       29.97F
MANHATTAN      MOCLDY    64  61  90 CALM      29.94F
OLATHE IND     CLOUDY    64  60  87 SE8       29.98F
OLATHE EXE     CLOUDY    63  59  87 SE12      29.97F
SALINA         CLEAR     67  64  90 S9        29.93F
TOPEKA BILLARD CLOUDY    65  61  87 SE6       29.97F
TOPEKA FORBES  TSTM      64  61  90 E8        29.97F
$$


USA.gov is the U.S. government's official web portal to all federal, state and local government web resources and services.